Hourly Data Report for September 29, 2006

TORONTO CITY
ONTARIO

43°40'00.000" N
79°24'00.000" W
112.50 m
6158355
71508
XTO

Download Data

Hourly Data (September 2006)
Hourly Data Report for September 29, 2006
TIME
LST
Temp Definition
°C
Dew Point Definition
°C
Rel Hum Definition
%
Precip. Amount Definition
mm

Wind Dir Definition
10's deg

Wind Spd Definition
km/h
Visibility Definition
km
Stn Press Definition
kPa
Hmdx Definition


Wind Chill Definition


Weather Definition


00:00 8.8 5.6 80   LegendMM LegendMM   99.67     LegendNANA
01:00 7.9 5.1 82   LegendMM LegendMM   99.68     LegendNANA
02:00 6.9 4.9 87   LegendMM LegendMM   99.64     LegendNANA
03:00 6.8 4.7 86   LegendMM LegendMM   99.65     LegendNANA
04:00 6.4 4.3 86   LegendMM LegendMM   99.70     LegendNANA
05:00 6.4 4.2 86   LegendMM LegendMM   99.73     LegendNANA
06:00 6.3 3.7 83   LegendMM LegendMM   99.77     LegendNANA
07:00 6.3 4.0 85   LegendMM LegendMM   99.82     LegendNANA
08:00 7.5 3.9 78   LegendMM LegendMM   99.87     LegendNANA
09:00 8.9 2.7 65   LegendMM LegendMM   99.91     LegendNANA
10:00 9.9 2.4 60   LegendMM LegendMM   99.91     LegendNANA
11:00 11.3 3.4 58   LegendMM LegendMM   99.90     LegendNANA
12:00 12.4 4.1 57   LegendMM LegendMM   99.90     LegendNANA
13:00 13.0 4.3 55   LegendMM LegendMM   99.86     LegendNANA
14:00 11.7 4.8 63   LegendMM LegendMM   99.86     LegendNANA
15:00 12.4 6.6 68   LegendMM LegendMM   99.87     LegendNANA
16:00 12.2 6.0 66   LegendMM LegendMM   99.88     LegendNANA
17:00 11.8 5.0 63   LegendMM LegendMM   99.94     LegendNANA
18:00 10.9 4.8 66   LegendMM LegendMM   99.97     LegendNANA
19:00 10.6 4.9 68   LegendMM LegendMM   100.01     LegendNANA
20:00 9.0 5.4 78   LegendMM LegendMM   100.07     LegendNANA
21:00 8.4 5.7 83   LegendMM LegendMM   100.11     LegendNANA
22:00 8.2 6.3 88   LegendMM LegendMM   100.13     LegendNANA
23:00 8.5 6.4 87   LegendMM LegendMM   100.15     LegendNANA

Notes on Data Quality.

Legend

  • E = Estimated
  • M = Missing
  • NA = Not Available*
  • [empty] = Indicates an unobserved value
Date modified: